• In Romania
  • List of Countries
  • For 7 days
  • Water Temperature
  • Satellite Maps
  • Weather Map
  • Weather Widgets
  • user-avatar
    Login

    Hourly Weather Morpeth

    Today, 23 May, Wednesday

    Time Temperature Precipitation Wind Pressure Humidity
    00:00 +7°C° 0 mm 4 mps 764 mmHg 94%
    01:00 +8°C° 0 mm 3 mps 764 mmHg 94%
    02:00 +8°C° 0 mm 3 mps 764 mmHg 94%
    03:00 +8°C° 0 mm 3 mps 764 mmHg 94%
    04:00 +9°C° 0 mm 3 mps 764 mmHg 93%
    05:00 +9°C° 0 mm 3 mps 764 mmHg 91%
    06:00 +10°C° 0 mm 3 mps 765 mmHg 90%
    07:00 +10°C° 0 mm 3 mps 765 mmHg 88%
    08:00 +11°C° 0 mm 3 mps 765 mmHg 85%
    09:00 +11°C° 0 mm 3 mps 765 mmHg 83%
    10:00 +12°C° 0 mm 3 mps 765 mmHg 81%
    11:00 +13°C° 0 mm 3 mps 765 mmHg 78%
    12:00 +13°C° 0 mm 3 mps 765 mmHg 75%
    13:00 +14°C° 0 mm 3 mps 765 mmHg 74%
    14:00 +14°C° 0 mm 4 mps 765 mmHg 73%
    15:00 +15°C° 0 mm 4 mps 765 mmHg 72%
    16:00 +14°C° 0 mm 4 mps 765 mmHg 75%
    17:00 +13°C° 0 mm 4 mps 765 mmHg 78%
    18:00 +13°C° 0 mm 3 mps 765 mmHg 81%
    19:00 +11°C° 0 mm 3 mps 765 mmHg 85%
    20:00 +10°C° 0 mm 3 mps 765 mmHg 89%
    21:00 +8°C° 0 mm 2 mps 765 mmHg 94%
    22:00 +8°C° 0 mm 2 mps 766 mmHg 94%
    23:00 +7°C° 0 mm 2 mps 766 mmHg 95%

    Tomorrow, 24 May, Thursday

    Time Temperature Precipitation Wind Pressure Humidity
    00:00 +8°C° 0 mm 1 mps 766 mmHg 95%
    01:00 +7°C° 0 mm 2 mps 765 mmHg 95%
    02:00 +7°C° 0 mm 2 mps 765 mmHg 95%
    03:00 +7°C° 0 mm 2 mps 765 mmHg 95%
    04:00 +8°C° 0 mm 2 mps 765 mmHg 94%
    05:00 +9°C° 0 mm 2 mps 765 mmHg 92%
    06:00 +10°C° 0 mm 2 mps 765 mmHg 90%
    07:00 +12°C° 0 mm 2 mps 764 mmHg 85%
    08:00 +13°C° 0 mm 3 mps 764 mmHg 80%
    09:00 +16°C° 0 mm 3 mps 764 mmHg 75%
    10:00 +17°C° 0 mm 4 mps 764 mmHg 72%
    11:00 +18°C° 0 mm 4 mps 764 mmHg 70%
    12:00 +18°C° 0 mm 4 mps 764 mmHg 68%
    13:00 +18°C° 0 mm 4 mps 763 mmHg 68%
    14:00 +18°C° 0 mm 4 mps 763 mmHg 68%
    15:00 +18°C° 0 mm 4 mps 763 mmHg 68%
    16:00 +18°C° 0 mm 4 mps 763 mmHg 71%
    17:00 +17°C° 0 mm 4 mps 763 mmHg 74%
    18:00 +15°C° 0 mm 4 mps 763 mmHg 77%
    19:00 +13°C° 0 mm 4 mps 763 mmHg 82%
    20:00 +12°C° 0 mm 3 mps 763 mmHg 86%
    21:00 +10°C° 0 mm 3 mps 763 mmHg 91%
    22:00 +10°C° 0 mm 3 mps 763 mmHg 91%
    23:00 +10°C° 0 mm 3 mps 763 mmHg 92%

    Day after tomorrow, 25 May, Friday

    Time Temperature Precipitation Wind Pressure Humidity
    00:00 +9°C° 0 mm 3 mps 763 mmHg 93%
    01:00 +8°C° 0 mm 4 mps 762 mmHg 93%
    02:00 +8°C° 0 mm 4 mps 762 mmHg 93%
    03:00 +8°C° 0 mm 4 mps 762 mmHg 94%
    04:00 +10°C° 0 mm 4 mps 762 mmHg 92%
    05:00 +9°C° 0 mm 5 mps 762 mmHg 90%
    06:00 +10°C° 0 mm 6 mps 762 mmHg 88%
    07:00 +11°C° 0.4 mm 6 mps 762 mmHg 87%
    08:00 +11°C° 0.4 mm 6 mps 761 mmHg 86%
    09:00 +12°C° 0.4 mm 7 mps 761 mmHg 85%
    10:00 +11°C° 2.3 mm 7 mps 762 mmHg 88%
    11:00 +11°C° 2.3 mm 6 mps 762 mmHg 91%
    12:00 +11°C° 2.3 mm 6 mps 762 mmHg 94%
    13:00 +10°C° 1 mm 6 mps 762 mmHg 95%
    14:00 +10°C° 1 mm 6 mps 762 mmHg 95%
    15:00 +10°C° 1 mm 5 mps 762 mmHg 95%
    16:00 +12°C° 0.1 mm 5 mps 762 mmHg 94%
    17:00 +12°C° 0.1 mm 5 mps 762 mmHg 93%
    18:00 +12°C° 0.1 mm 5 mps 762 mmHg 93%
    19:00 +12°C° 0 mm 5 mps 763 mmHg 92%
    20:00 +10°C° 0 mm 5 mps 763 mmHg 92%
    21:00 +10°C° 0 mm 5 mps 764 mmHg 92%
    22:00 +10°C° 0 mm 5 mps 764 mmHg 91%
    23:00 +10°C° 0 mm 5 mps 764 mmHg 90%

    26 May, Saturday

    Time Temperature Precipitation Wind Pressure Humidity
    00:00 +10°C° 0 mm 5 mps 764 mmHg 89%
    01:00 +10°C° 0 mm 4 mps 764 mmHg 90%
    02:00 +10°C° 0 mm 4 mps 764 mmHg 90%
    03:00 +10°C° 0 mm 4 mps 764 mmHg 90%
    04:00 +10°C° 0 mm 5 mps 764 mmHg 89%
    05:00 +10°C° 0 mm 5 mps 764 mmHg 87%
    06:00 +12°C° 0 mm 5 mps 764 mmHg 86%
    07:00 +13°C° 0 mm 6 mps 764 mmHg 81%
    08:00 +14°C° 0 mm 6 mps 765 mmHg 77%
    09:00 +15°C° 0 mm 6 mps 765 mmHg 73%
    10:00 +16°C° 0 mm 6 mps 765 mmHg 71%
    11:00 +16°C° 0 mm 6 mps 765 mmHg 69%
    12:00 +17°C° 0 mm 7 mps 765 mmHg 67%
    13:00 +17°C° 0 mm 6 mps 765 mmHg 68%
    14:00 +16°C° 0 mm 6 mps 765 mmHg 70%
    15:00 +16°C° 0 mm 6 mps 765 mmHg 71%
    16:00 +15°C° 0 mm 5 mps 765 mmHg 74%
    17:00 +14°C° 0 mm 5 mps 765 mmHg 77%
    18:00 +14°C° 0 mm 5 mps 765 mmHg 80%
    19:00 +13°C° 0 mm 5 mps 765 mmHg 84%
    20:00 +12°C° 0 mm 5 mps 765 mmHg 87%
    21:00 +11°C° 0 mm 4 mps 765 mmHg 91%
    22:00 +11°C° 0 mm 4 mps 765 mmHg 92%
    23:00 +11°C° 0 mm 4 mps 765 mmHg 93%

    27 May, Sunday

    Time Temperature Precipitation Wind Pressure Humidity
    00:00 +10°C° 0 mm 4 mps 765 mmHg 94%
    01:00 +10°C° 0 mm 4 mps 765 mmHg 93%
    02:00 +10°C° 0 mm 4 mps 764 mmHg 93%
    03:00 +10°C° 0 mm 4 mps 764 mmHg 93%
    04:00 +11°C° 0 mm 4 mps 764 mmHg 91%
    05:00 +12°C° 0 mm 5 mps 764 mmHg 89%
    06:00 +13°C° 0 mm 5 mps 764 mmHg 88%
    07:00 +14°C° 0 mm 5 mps 764 mmHg 84%
    08:00 +15°C° 0 mm 5 mps 764 mmHg 80%
    09:00 +17°C° 0 mm 5 mps 764 mmHg 75%
    10:00 +17°C° 0 mm 6 mps 764 mmHg 73%
    11:00 +19°C° 0 mm 6 mps 763 mmHg 71%
    12:00 +20°C° 0 mm 6 mps 763 mmHg 69%
    13:00 +20°C° 0 mm 6 mps 763 mmHg 69%
    14:00 +20°C° 0 mm 6 mps 763 mmHg 70%
    15:00 +20°C° 0 mm 6 mps 762 mmHg 70%
    16:00 +19°C° 0 mm 5 mps 762 mmHg 72%
    17:00 +17°C° 0 mm 5 mps 762 mmHg 74%
    18:00 +16°C° 0 mm 5 mps 762 mmHg 76%
    19:00 +15°C° 0 mm 4 mps 762 mmHg 80%
    20:00 +13°C° 0 mm 4 mps 762 mmHg 84%
    21:00 +12°C° 0 mm 3 mps 762 mmHg 88%
    22:00 +11°C° 0 mm 3 mps 762 mmHg 89%
    23:00 +11°C° 0 mm 3 mps 762 mmHg 89%

    28 May, Monday

    Time Temperature Precipitation Wind Pressure Humidity
    00:00 +10°C° 0 mm 2 mps 762 mmHg 90%
    01:00 +10°C° 0 mm 2 mps 762 mmHg 92%
    02:00 +10°C° 0 mm 3 mps 761 mmHg 93%
    03:00 +10°C° 0 mm 3 mps 761 mmHg 95%
    04:00 +11°C° 0 mm 3 mps 761 mmHg 94%
    05:00 +12°C° 0 mm 3 mps 761 mmHg 93%
    06:00 +13°C° 0 mm 3 mps 761 mmHg 93%
    07:00 +14°C° 0 mm 4 mps 761 mmHg 89%
    08:00 +17°C° 0 mm 4 mps 761 mmHg 85%
    09:00 +18°C° 0 mm 4 mps 761 mmHg 81%
    10:00 +19°C° 0 mm 4 mps 761 mmHg 78%
    11:00 +19°C° 0 mm 5 mps 761 mmHg 75%
    12:00 +20°C° 0 mm 5 mps 760 mmHg 72%
    13:00 +20°C° 0 mm 5 mps 760 mmHg 73%
    14:00 +20°C° 0 mm 5 mps 760 mmHg 74%
    15:00 +19°C° 0 mm 5 mps 760 mmHg 75%
    16:00 +19°C° 0 mm 5 mps 760 mmHg 78%
    17:00 +18°C° 0 mm 4 mps 759 mmHg 81%
    18:00 +17°C° 0 mm 4 mps 759 mmHg 84%
    19:00 +16°C° 0 mm 3 mps 760 mmHg 87%
    20:00 +13°C° 0 mm 3 mps 760 mmHg 90%
    21:00 +13°C° 0 mm 2 mps 760 mmHg 93%
    22:00 +13°C° 0 mm 2 mps 760 mmHg 94%
    23:00 +12°C° 0 mm 2 mps 760 mmHg 95%
    Show more